When you browse on this site, cookies collect data to enhance your experience and personalize the content and advertising you see.
Visit our Privacy Policy to learn more. By continuing to use the site, you agree to this use of cookies and data.
  • In Schweiz
  • Länderverzeichnis
  • Für 7 Tage
  • Wassertemperatur
  • Wetterkarte
  • Widgets
  • user-avatar
    Anmelden

    Stündliche Wetter Barcelona

    Heute, 23 August, Freitag

    Zeit Temperatur Niederschläge Wind Luftdruck Luftfeuchtigkeit
    00:00 +26°C° 0 mm 1 m/S 760 mmHg 89%
    01:00 +26°C° 0 mm 1 m/S 760 mmHg 91%
    02:00 +25°C° 0 mm 1 m/S 759 mmHg 91%
    03:00 +25°C° 0 mm 1 m/S 759 mmHg 92%
    04:00 +25°C° 0 mm 1 m/S 759 mmHg 93%
    05:00 +24°C° 0 mm 2 m/S 759 mmHg 94%
    06:00 +25°C° 0 mm 2 m/S 760 mmHg 90%
    07:00 +26°C° 0 mm 2 m/S 760 mmHg 87%
    08:00 +28°C° 0 mm 2 m/S 761 mmHg 84%
    09:00 +29°C° 0 mm 2 m/S 761 mmHg 77%
    10:00 +31°C° 0 mm 2 m/S 761 mmHg 71%
    11:00 +34°C° 0 mm 2 m/S 760 mmHg 64%
    12:00 +34°C° 0.3 mm 2 m/S 760 mmHg 66%
    13:00 +34°C° 0.3 mm 2 m/S 759 mmHg 68%
    14:00 +35°C° 0.3 mm 2 m/S 758 mmHg 70%
    15:00 +34°C° 0.7 mm 2 m/S 758 mmHg 74%
    16:00 +32°C° 0.7 mm 2 m/S 758 mmHg 78%
    17:00 +31°C° 0.7 mm 2 m/S 757 mmHg 81%
    18:00 +30°C° 0.2 mm 2 m/S 758 mmHg 84%
    19:00 +28°C° 0.2 mm 2 m/S 759 mmHg 86%
    20:00 +27°C° 0.2 mm 2 m/S 759 mmHg 89%
    21:00 +27°C° 0.3 mm 1 m/S 759 mmHg 89%
    22:00 +26°C° 0.3 mm 1 m/S 760 mmHg 90%
    23:00 +26°C° 0.3 mm 1 m/S 760 mmHg 91%

    Morgen, 24 August, Samstag

    Zeit Temperatur Niederschläge Wind Luftdruck Luftfeuchtigkeit
    00:00 +26°C° 0 mm 1 m/S 759 mmHg 92%
    01:00 +25°C° 0 mm 1 m/S 759 mmHg 93%
    02:00 +25°C° 0 mm 2 m/S 759 mmHg 94%
    03:00 +25°C° 0.3 mm 2 m/S 759 mmHg 94%
    04:00 +24°C° 0.3 mm 1 m/S 759 mmHg 94%
    05:00 +24°C° 0.3 mm 1 m/S 759 mmHg 95%
    06:00 +25°C° 1.1 mm 2 m/S 759 mmHg 94%
    07:00 +26°C° 1.1 mm 2 m/S 760 mmHg 94%
    08:00 +26°C° 1.1 mm 2 m/S 760 mmHg 94%
    09:00 +28°C° 0.5 mm 2 m/S 760 mmHg 88%
    10:00 +30°C° 0.5 mm 2 m/S 760 mmHg 82%
    11:00 +32°C° 0.5 mm 2 m/S 760 mmHg 76%
    12:00 +34°C° 0.3 mm 2 m/S 760 mmHg 71%
    13:00 +34°C° 0.3 mm 2 m/S 759 mmHg 67%
    14:00 +35°C° 0.3 mm 2 m/S 758 mmHg 63%
    15:00 +34°C° 0.4 mm 2 m/S 758 mmHg 70%
    16:00 +32°C° 0.4 mm 2 m/S 758 mmHg 78%
    17:00 +31°C° 0.4 mm 2 m/S 758 mmHg 85%
    18:00 +29°C° 0.3 mm 1 m/S 758 mmHg 87%
    19:00 +28°C° 0.3 mm 1 m/S 759 mmHg 89%
    20:00 +26°C° 0.3 mm 1 m/S 759 mmHg 91%
    21:00 +26°C° 0.1 mm 1 m/S 760 mmHg 91%
    22:00 +26°C° 0.1 mm 1 m/S 760 mmHg 91%
    23:00 +26°C° 0.1 mm 1 m/S 760 mmHg 91%

    übermorgen, 25 August, Sonntag

    Zeit Temperatur Niederschläge Wind Luftdruck Luftfeuchtigkeit
    00:00 +25°C° 0 mm 1 m/S 760 mmHg 92%
    01:00 +25°C° 0 mm 1 m/S 759 mmHg 93%
    02:00 +25°C° 0 mm 2 m/S 759 mmHg 94%
    03:00 +25°C° 0 mm 2 m/S 759 mmHg 95%
    04:00 +24°C° 0 mm 1 m/S 759 mmHg 95%
    05:00 +24°C° 0 mm 1 m/S 759 mmHg 96%
    06:00 +25°C° 0 mm 1 m/S 759 mmHg 94%
    07:00 +26°C° 0 mm 1 m/S 760 mmHg 92%
    08:00 +27°C° 0 mm 1 m/S 760 mmHg 90%
    09:00 +29°C° 0 mm 1 m/S 760 mmHg 82%
    10:00 +31°C° 0 mm 1 m/S 760 mmHg 73%
    11:00 +33°C° 0 mm 1 m/S 760 mmHg 65%
    12:00 +33°C° 0.1 mm 1 m/S 760 mmHg 63%
    13:00 +34°C° 0.1 mm 1 m/S 759 mmHg 61%
    14:00 +34°C° 0.1 mm 1 m/S 758 mmHg 59%
    15:00 +34°C° 0.3 mm 2 m/S 758 mmHg 67%
    16:00 +32°C° 0.3 mm 2 m/S 757 mmHg 75%
    17:00 +30°C° 0.3 mm 2 m/S 757 mmHg 83%
    18:00 +29°C° 0.2 mm 2 m/S 757 mmHg 84%
    19:00 +28°C° 0.2 mm 2 m/S 758 mmHg 86%
    20:00 +27°C° 0.2 mm 2 m/S 759 mmHg 87%
    21:00 +26°C° 0.1 mm 2 m/S 759 mmHg 89%
    22:00 +26°C° 0.1 mm 2 m/S 759 mmHg 90%
    23:00 +25°C° 0.1 mm 2 m/S 760 mmHg 92%

    26 August, Montag

    Zeit Temperatur Niederschläge Wind Luftdruck Luftfeuchtigkeit
    00:00 +25°C° 0 mm 2 m/S 759 mmHg 92%
    01:00 +24°C° 0 mm 1 m/S 759 mmHg 92%
    02:00 +24°C° 0 mm 1 m/S 758 mmHg 93%
    03:00 +24°C° 0 mm 1 m/S 758 mmHg 92%
    04:00 +23°C° 0 mm 1 m/S 758 mmHg 92%
    05:00 +23°C° 0 mm 2 m/S 758 mmHg 92%
    06:00 +25°C° 0 mm 1 m/S 759 mmHg 89%
    07:00 +26°C° 0 mm 1 m/S 759 mmHg 86%
    08:00 +27°C° 0 mm 1 m/S 760 mmHg 83%
    09:00 +29°C° 0 mm 1 m/S 760 mmHg 76%
    10:00 +32°C° 0 mm 1 m/S 760 mmHg 69%
    11:00 +34°C° 0 mm 1 m/S 760 mmHg 62%
    12:00 +34°C° 0.1 mm 1 m/S 759 mmHg 61%
    13:00 +35°C° 0.1 mm 2 m/S 758 mmHg 60%
    14:00 +35°C° 0.1 mm 2 m/S 758 mmHg 60%
    15:00 +34°C° 0.3 mm 2 m/S 757 mmHg 66%
    16:00 +33°C° 0.3 mm 3 m/S 757 mmHg 72%
    17:00 +31°C° 0.3 mm 3 m/S 757 mmHg 78%
    18:00 +29°C° 0.1 mm 3 m/S 757 mmHg 81%
    19:00 +28°C° 0.1 mm 3 m/S 758 mmHg 84%
    20:00 +27°C° 0.1 mm 3 m/S 758 mmHg 87%
    21:00 +26°C° 0.1 mm 3 m/S 758 mmHg 89%
    22:00 +26°C° 0.1 mm 3 m/S 759 mmHg 91%
    23:00 +26°C° 0.1 mm 3 m/S 759 mmHg 92%

    27 August, Dienstag

    Zeit Temperatur Niederschläge Wind Luftdruck Luftfeuchtigkeit
    00:00 +26°C° 0 mm 3 m/S 759 mmHg 93%
    01:00 +25°C° 0 mm 3 m/S 758 mmHg 93%
    02:00 +25°C° 0 mm 2 m/S 758 mmHg 94%
    03:00 +25°C° 0 mm 2 m/S 758 mmHg 94%
    04:00 +25°C° 0 mm 2 m/S 758 mmHg 95%
    05:00 +24°C° 0 mm 2 m/S 758 mmHg 95%
    06:00 +25°C° 0 mm 2 m/S 758 mmHg 93%
    07:00 +26°C° 0 mm 2 m/S 759 mmHg 91%
    08:00 +27°C° 0 mm 2 m/S 759 mmHg 88%
    09:00 +29°C° 0 mm 2 m/S 760 mmHg 80%
    10:00 +31°C° 0 mm 2 m/S 760 mmHg 72%
    11:00 +34°C° 0 mm 2 m/S 760 mmHg 64%
    12:00 +35°C° 0.1 mm 2 m/S 759 mmHg 62%
    13:00 +35°C° 0.1 mm 2 m/S 758 mmHg 59%
    14:00 +36°C° 0.1 mm 2 m/S 757 mmHg 57%
    15:00 +34°C° 0.3 mm 2 m/S 757 mmHg 65%
    16:00 +32°C° 0.3 mm 2 m/S 757 mmHg 72%
    17:00 +30°C° 0.3 mm 3 m/S 757 mmHg 80%
    18:00 +29°C° 0 mm 2 m/S 757 mmHg 83%
    19:00 +28°C° 0 mm 2 m/S 757 mmHg 85%
    20:00 +27°C° 0 mm 2 m/S 758 mmHg 88%
    21:00 +27°C° 0 mm 2 m/S 758 mmHg 88%
    22:00 +26°C° 0 mm 2 m/S 759 mmHg 89%
    23:00 +26°C° 0 mm 2 m/S 759 mmHg 90%

    28 August, Mittwoch

    Zeit Temperatur Niederschläge Wind Luftdruck Luftfeuchtigkeit
    00:00 +26°C° 0.1 mm 2 m/S 758 mmHg 90%
    01:00 +26°C° 0.1 mm 2 m/S 758 mmHg 90%
    02:00 +25°C° 0.1 mm 2 m/S 757 mmHg 90%
    03:00 +25°C° 0 mm 2 m/S 757 mmHg 90%
    04:00 +25°C° 0 mm 2 m/S 758 mmHg 91%
    05:00 +25°C° 0 mm 2 m/S 758 mmHg 92%
    06:00 +26°C° 0 mm 2 m/S 758 mmHg 90%
    07:00 +27°C° 0 mm 2 m/S 759 mmHg 88%
    08:00 +27°C° 0 mm 1 m/S 759 mmHg 86%
    09:00 +29°C° 0 mm 2 m/S 759 mmHg 80%
    10:00 +31°C° 0 mm 2 m/S 759 mmHg 74%
    11:00 +32°C° 0 mm 2 m/S 759 mmHg 68%
    12:00 +32°C° 0.9 mm 2 m/S 758 mmHg 72%
    13:00 +32°C° 0.9 mm 2 m/S 758 mmHg 76%
    14:00 +32°C° 0.9 mm 2 m/S 757 mmHg 81%
    15:00 +32°C° 1.2 mm 2 m/S 757 mmHg 83%
    16:00 +31°C° 1.2 mm 2 m/S 757 mmHg 85%
    17:00 +30°C° 1.2 mm 2 m/S 756 mmHg 88%
    18:00 +29°C° 0.7 mm 2 m/S 757 mmHg 89%
    19:00 +28°C° 0.7 mm 2 m/S 757 mmHg 90%
    20:00 +27°C° 0.7 mm 2 m/S 757 mmHg 91%
    21:00 +27°C° 0.5 mm 2 m/S 758 mmHg 91%
    22:00 +27°C° 0.5 mm 2 m/S 758 mmHg 91%
    23:00 +27°C° 0.5 mm 2 m/S 759 mmHg 91%
    Mehr zeigen